#timestamp,LO_Frequency,Hit,StdDev 
1508176815.6,286046992.5,N
1508176835.4,286046989.5,N
1508176855.2,286046987.0,N
1508176875.1,286046986.2,N
1508176876.0,286046986.2,N
1508176895.8,286046984.9,N
1508176915.6,286046982.1,N
1508176935.5,286046983.2,N
1508176955.3,286046979.5,N
1508176975.1,286046979.1,N
1508176995.9,286046978.9,N
1508177015.7,286046980.0,N
1508177035.5,286046978.0,N
1508177055.4,286046979.8,N
1508177075.2,286046977.9,N
1508177095.0,286046977.0,N
1508177095.9,286046977.0,N
1508177115.8,286046974.9,N
1508177135.6,286046974.2,N
1508177155.4,286046972.5,N
1508177175.3,286046973.9,N
1508177195.1,286046971.8,N
1508177196.0,286046971.8,N
1508177215.8,286046973.7,N
1508177235.7,286046973.8,N
1508177255.5,286046971.5,Y
1508177275.3,286046990.7,P
1508177295.2,286046989.8,N
1508177315.9,286046991.6,N
1508177335.7,286046989.7,N
1508177355.6,286046990.0,Y
1508177375.4,286047002.4,P
1508177395.2,286047003.9,N
1508177415.1,286047001.6,N
1508177416.0,286047001.6,N
1508177435.8,286047003.5,N
1508177455.6,286047000.0,N
1508177475.5,286046995.9,N
1508177495.3,286047001.2,N
1508177515.1,286047003.9,N
1508177535.8,286047009.1,N
1508177555.7,286047015.6,Y
1508177575.5,286047017.9,P
1508177595.4,286047018.5,N
1508177615.2,286047020.8,N
1508177635.0,286047023.8,Y
1508177635.9,286047023.8,P
1508177655.8,286047013.6,N
1508177675.6,286047012.5,N
1508177695.4,286047015.9,Y
1508177715.3,286047000.4,P
1508177735.1,286046999.4,N
1508177736.0,286046999.4,N
1508177755.8,286046998.7,N
1508177775.7,286047000.7,N
1508177795.5,286047000.3,N
1508177815.3,286046998.2,N
1508177835.2,286046998.9,N
1508177855.9,286047003.9,N
1508177875.7,286047003.4,N
1508177895.5,286047005.8,N
1508177915.4,286047004.5,N
1508177935.2,286047003.3,N
1508177955.0,286047005.5,N
1508177955.9,286047005.5,N
1508177975.8,286047004.7,N
1508177995.6,286047005.4,N
1508178015.4,286047007.6,N
1508178035.3,286047007.1,N
1508178055.1,286047003.3,N
1508178075.8,286047003.7,N
1508178095.7,286047004.5,N
1508178115.5,286047005.0,N
1508178135.3,286047005.4,N
1508178155.2,286047007.5,N
1508178175.9,286047006.1,N
1508178195.7,286047006.1,N
1508178215.6,286047004.5,N
1508178235.4,286047007.5,N
1508178255.2,286047004.2,N
1508178275.1,286047003.3,N
1508178276.0,286047003.3,N
1508178295.8,286047002.9,N
1508178315.6,286047001.7,N
1508178335.5,286047001.0,N
1508178355.3,286047001.2,N
1508178375.1,286047000.4,N
1508178395.9,286047002.8,N
1508178415.7,286047001.4,N
1508178435.5,286047005.8,N
1508178455.3,286047005.0,N
1508178475.2,286047005.1,N
1508178495.0,286047008.4,Y
1508178495.9,286047008.4,P
1508178515.8,286047003.0,N
1508178535.6,286047004.2,N
1508178555.4,286046998.3,N
1508178575.2,286046998.8,N
1508178595.1,286047001.2,N
1508178596.0,286047001.2,N
1508178615.8,286046998.3,N
1508178635.6,286046999.4,N
1508178655.5,286046996.6,N
1508178675.3,286046998.1,N
1508178695.1,286047000.4,N
1508178715.9,286046999.2,N
1508178735.7,286046999.1,N
1508178755.5,286046998.9,N
1508178775.4,286047004.1,N
1508178795.2,286046998.4,N
1508178815.0,286046993.7,N
1508178815.9,286046993.7,N
1508178835.8,286046993.8,N
1508178855.6,286046991.5,N
1508178875.4,286046991.6,N
1508178895.3,286046988.8,N
1508178915.1,286046987.3,N
1508178916.0,286046987.3,N
1508178935.8,286046988.0,N
1508178955.7,286046986.5,N
1508178975.5,286046983.3,N
1508178995.3,286046979.4,Y
1508179015.2,286046980.9,P
1508179035.9,286046983.2,N
1508179055.7,286046983.5,N
1508179075.5,286046982.7,N
1508179095.4,286046983.9,N
1508179115.2,286046982.3,Y
1508179135.1,286046996.7,P
1508179136.0,286046996.7,N
1508179155.8,286046996.3,N
1508179175.6,286046993.6,N
1508179195.5,286046993.3,N
1508179215.3,286046995.4,N
1508179235.1,286046995.2,N
1508179255.8,286046996.1,N
1508179275.7,286046996.2,N
1508179295.5,286046993.6,N
1508179315.3,286046993.0,N
1508179335.2,286046988.7,Y
1508179355.0,286046994.9,P
1508179355.9,286046994.9,P
1508179375.8,286046995.5,P
1508179395.6,286046995.1,Y
1508179415.4,286047002.4,P
1508179435.3,286047000.8,N
1508179455.1,286047001.0,N
1508179456.0,286047001.0,N
1508179475.8,286047002.3,N
1508179495.7,286046998.1,N
1508179515.5,286046994.4,N
1508179535.3,286046993.8,N
1508179555.1,286047001.2,N
1508179575.9,286047007.6,N
1508179595.7,286047012.2,Y
1508179615.6,286047014.5,P
1508179635.4,286047019.9,N
1508179655.2,286047020.9,N
1508179675.1,286047026.5,Y
1508179676.0,286047026.5,P
1508179695.8,286047010.0,N
1508179715.6,286047013.3,N
1508179735.5,286047013.8,N
1508179755.3,286047010.9,N
1508179775.1,286047013.9,N
1508179795.8,286047012.8,N
1508179815.7,286047020.3,Y
1508179835.5,286047007.6,P
1508179855.3,286047006.2,N
1508179875.2,286047008.2,N
1508179895.0,286047010.6,Y
1508179895.9,286047010.6,P
1508179915.8,286047004.3,P
1508179935.6,286047004.4,N
1508179955.4,286047003.4,N
1508179975.3,286047001.8,N
1508179995.1,286047003.6,N
1508179996.0,286047003.6,N
1508180015.8,286046999.8,N
1508180035.6,286047001.7,N
1508180055.5,286047001.4,N
1508180075.3,286047003.2,N
1508180095.1,286047001.5,N
1508180115.9,286047000.2,N
1508180135.7,286047001.0,N
1508180155.5,286047002.1,N
1508180175.4,286046999.0,N
1508180195.2,286046996.7,N
1508180215.0,286047000.9,N
1508180215.9,286047000.9,N
1508180235.8,286046997.0,N
1508180255.6,286046997.3,N
1508180275.4,286046999.0,N
1508180295.3,286046996.5,N
1508180315.1,286046997.8,N
1508180316.0,286046997.8,N
1508180335.8,286046999.5,N
1508180355.7,286046996.6,N
1508180375.5,286046998.7,N
1508180395.3,286047000.3,N
